TimeEDT,TemperatureF,Dew PointF,Humidity,Sea Level PressureIn,VisibilityMPH,Wind Direction,Wind SpeedMPH,Gust SpeedMPH,PrecipitationIn,Events,Conditions,WindDirDegrees,DateUTC
12:15 AM,71.6,69.8,94,29.78,5.0,SW,3.5,-,N/A,Rain-Thunderstorm,Light Thunderstorms and Rain,220,2013-09-13 04:15:00
12:36 AM,71.6,69.8,94,29.76,7.0,Calm,Calm,-,0.01,Rain,Light Rain,0,2013-09-13 04:36:00
12:56 AM,71.6,69.8,94,29.75,7.0,NW,3.5,-,N/A,Rain,Light Rain,310,2013-09-13 04:56:00
1:16 AM,71.6,69.8,94,29.74,5.0,Calm,Calm,-,N/A,Rain,Light Rain,0,2013-09-13 05:16:00
1:36 AM,71.6,69.8,94,29.74,4.0,Calm,Calm,-,N/A,,Scattered Clouds,0,2013-09-13 05:36:00
1:55 AM,71.6,69.8,94,29.74,4.0,WSW,4.6,-,N/A,,Clear,240,2013-09-13 05:55:00
2:15 AM,71.6,69.8,94,29.73,7.0,WSW,4.6,-,N/A,Rain,Rain,250,2013-09-13 06:15:00
2:35 AM,71.6,69.8,94,29.73,5.0,WSW,5.8,-,0.01,,Scattered Clouds,240,2013-09-13 06:35:00
2:56 AM,71.6,69.8,94,29.73,5.0,WSW,5.8,-,N/A,,Clear,240,2013-09-13 06:56:00
3:16 AM,73.4,69.8,88,29.72,7.0,West,5.8,-,N/A,Rain,Rain,260,2013-09-13 07:16:00
3:36 AM,73.4,69.8,88,29.71,7.0,West,3.5,-,N/A,,Scattered Clouds,270,2013-09-13 07:36:00
3:55 AM,71.6,69.8,94,29.71,4.0,WSW,5.8,-,N/A,,Clear,250,2013-09-13 07:55:00
4:15 AM,71.6,69.8,94,29.71,5.0,West,4.6,-,N/A,,Clear,260,2013-09-13 08:15:00
4:35 AM,71.6,69.8,94,29.70,4.0,West,4.6,-,N/A,,Clear,280,2013-09-13 08:35:00
4:56 AM,71.6,69.8,94,29.70,3.0,West,3.5,-,N/A,,Clear,280,2013-09-13 08:56:00
5:15 AM,71.6,69.8,94,29.70,7.0,West,5.8,-,N/A,,Clear,280,2013-09-13 09:15:00
5:38 AM,71.6,69.8,94,29.70,3.0,Calm,Calm,-,N/A,,Clear,0,2013-09-13 09:38:00
5:56 AM,71.6,69.8,94,29.70,2.5,Calm,Calm,-,N/A,,Clear,0,2013-09-13 09:56:00
6:16 AM,71.6,69.8,94,29.71,2.5,West,3.5,-,N/A,,Scattered Clouds,280,2013-09-13 10:16:00
6:35 AM,71.6,69.8,94,29.71,4.0,Calm,Calm,-,N/A,,Scattered Clouds,0,2013-09-13 10:35:00
6:56 AM,73.4,69.8,88,29.71,5.0,Calm,Calm,-,N/A,,Clear,0,2013-09-13 10:56:00
7:15 AM,73.4,69.8,88,29.72,3.0,Calm,Calm,-,0.01,Rain,Light Rain,0,2013-09-13 11:15:00
7:35 AM,73.4,71.6,94,29.72,2.0,Calm,Calm,-,0.01,,Mostly Cloudy,0,2013-09-13 11:35:00
7:55 AM,73.4,71.6,94,29.72,7.0,NW,5.8,-,0.01,,Scattered Clouds,310,2013-09-13 11:55:00
8:15 AM,75.2,69.8,83,29.73,10.0,NW,5.8,-,N/A,,Scattered Clouds,320,2013-09-13 12:15:00
8:35 AM,75.2,68.0,78,29.73,10.0,NNW,5.8,-,N/A,,Clear,330,2013-09-13 12:35:00
8:55 AM,77.0,68.0,74,29.74,10.0,NNW,5.8,-,N/A,,Clear,330,2013-09-13 12:55:00
9:16 AM,77.0,68.0,74,29.74,10.0,NW,6.9,-,N/A,,Clear,320,2013-09-13 13:16:00
9:36 AM,78.8,69.8,74,29.74,10.0,NW,10.4,-,N/A,,Clear,320,2013-09-13 13:36:00
9:55 AM,78.8,68.0,69,29.74,10.0,NW,11.5,17.3,N/A,,Scattered Clouds,320,2013-09-13 13:55:00
10:16 AM,77.0,69.8,78,29.75,10.0,NNW,11.5,17.3,N/A,,Scattered Clouds,330,2013-09-13 14:16:00
10:36 AM,77.0,66.2,69,29.75,10.0,NW,10.4,17.3,N/A,,Clear,320,2013-09-13 14:36:00
10:55 AM,77.0,66.2,69,29.75,10.0,NNW,10.4,18.4,N/A,,Scattered Clouds,330,2013-09-13 14:55:00
11:16 AM,78.8,66.2,65,29.75,10.0,NW,11.5,17.3,N/A,,Scattered Clouds,310,2013-09-13 15:16:00
11:35 AM,77.0,64.4,65,29.76,10.0,NNW,11.5,18.4,N/A,,Scattered Clouds,330,2013-09-13 15:35:00
11:55 AM,78.8,62.6,57,29.76,10.0,NNW,13.8,21.9,N/A,,Clear,330,2013-09-13 15:55:00
12:16 PM,78.8,60.8,54,29.76,10.0,NNW,11.5,21.9,N/A,,Clear,330,2013-09-13 16:16:00
12:36 PM,78.8,60.8,54,29.76,10.0,NNW,11.5,20.7,N/A,,Clear,330,2013-09-13 16:36:00
12:56 PM,78.8,57.2,47,29.76,10.0,NNW,9.2,19.6,N/A,,Clear,340,2013-09-13 16:56:00
1:35 PM,78.8,60.8,54,29.76,10.0,NW,13.8,20.7,N/A,,Clear,320,2013-09-13 17:35:00
1:55 PM,78.8,60.8,54,29.76,10.0,NNW,10.4,19.6,N/A,,Clear,330,2013-09-13 17:55:00
2:15 PM,78.8,60.8,54,29.75,10.0,NW,13.8,23.0,N/A,,Clear,320,2013-09-13 18:15:00
2:35 PM,78.8,60.8,54,29.75,10.0,NNW,8.1,17.3,N/A,,Clear,330,2013-09-13 18:35:00
2:55 PM,78.8,57.2,47,29.76,10.0,North,16.1,20.7,N/A,,Clear,350,2013-09-13 18:55:00
3:15 PM,-9999,-9999,N/A,-9999,10.0,NW,10.4,17.3,N/A,,Clear,320,2013-09-13 19:15:00
3:35 PM,78.8,57.2,47,29.76,10.0,NW,16.1,20.7,N/A,,Clear,320,2013-09-13 19:35:00
3:55 PM,78.8,60.8,54,29.76,10.0,NNW,8.1,20.7,N/A,,Clear,330,2013-09-13 19:55:00
4:15 PM,78.8,60.8,54,29.76,10.0,NW,10.4,19.6,N/A,,Clear,320,2013-09-13 20:15:00
4:35 PM,77.0,60.8,57,29.77,10.0,NNW,8.1,-,N/A,,Clear,330,2013-09-13 20:35:00
5:15 PM,77.0,59.0,54,29.77,10.0,NNW,9.2,16.1,N/A,,Clear,330,2013-09-13 21:15:00
5:35 PM,77.0,57.2,50,29.77,10.0,NW,9.2,-,N/A,,Clear,320,2013-09-13 21:35:00
5:55 PM,77.0,53.6,44,29.77,10.0,North,6.9,-,N/A,,Clear,350,2013-09-13 21:55:00
6:16 PM,75.2,55.4,50,29.78,10.0,NNW,5.8,-,N/A,,Scattered Clouds,340,2013-09-13 22:16:00
6:35 PM,75.2,55.4,50,29.78,10.0,NNW,5.8,-,N/A,,Clear,340,2013-09-13 22:35:00
6:55 PM,73.4,55.4,53,29.79,10.0,NNW,3.5,-,N/A,,Clear,340,2013-09-13 22:55:00
7:16 PM,73.4,55.4,53,29.80,10.0,NNW,4.6,-,N/A,,Clear,330,2013-09-13 23:16:00
7:36 PM,71.6,55.4,57,29.81,10.0,NNW,3.5,-,N/A,,Scattered Clouds,340,2013-09-13 23:36:00
7:55 PM,68.0,57.2,68,29.82,10.0,NNW,3.5,-,N/A,,Scattered Clouds,340,2013-09-13 23:55:00
8:16 PM,69.8,55.4,60,29.83,10.0,NNW,4.6,-,N/A,,Scattered Clouds,340,2013-09-14 00:16:00
8:36 PM,64.4,57.2,77,29.84,10.0,Calm,Calm,-,N/A,,Scattered Clouds,0,2013-09-14 00:36:00
8:56 PM,64.4,57.2,77,29.84,10.0,Calm,Calm,-,N/A,,Scattered Clouds,0,2013-09-14 00:56:00
9:15 PM,64.4,59.0,83,29.85,10.0,Calm,Calm,-,N/A,,Unknown,0,2013-09-14 01:15:00
9:36 PM,64.4,60.8,88,29.85,10.0,Calm,Calm,-,N/A,,Mostly Cloudy,0,2013-09-14 01:36:00
9:56 PM,64.4,59.0,83,29.85,10.0,Calm,Calm,-,N/A,,Mostly Cloudy,0,2013-09-14 01:56:00
10:16 PM,64.4,60.8,88,29.85,10.0,Calm,Calm,-,N/A,,Mostly Cloudy,0,2013-09-14 02:16:00
10:36 PM,68.0,57.2,68,29.86,10.0,North,6.9,-,N/A,,Scattered Clouds,350,2013-09-14 02:36:00
10:56 PM,68.0,55.4,64,29.87,10.0,NNE,8.1,-,N/A,,Clear,20,2013-09-14 02:56:00
11:16 PM,68.0,55.4,64,29.87,10.0,North,5.8,-,N/A,,Clear,10,2013-09-14 03:16:00
11:37 PM,66.2,55.4,68,29.87,10.0,North,4.6,-,N/A,,Clear,10,2013-09-14 03:37:00
11:56 PM,66.2,55.4,68,29.88,10.0,North,4.6,-,N/A,,Clear,360,2013-09-14 03:56:00